Regional Weather Roundup
Issued by NWS

Home | Current Version | Previous Version | Graphics & Text | Print | Product List | Glossary On
Versions: 1 2 3 4 5 6 7 8 9 10 11 12 13 14 15 16 17 18 19 20 21 22 23 24 25 26 27 28 29 30 31 32 33 34 35 36 37 38 39 40 41 42 43 44 45 46 47 48 49 50
000
ASUS43 KFSD 300910
RWRSD

WEATHER ROUNDUP FOR SOUTH DAKOTA
NATIONAL WEATHER SERVICE SIOUX FALLS SD
400 AM CDT SAT MAY 30 2015

NOTE: "FAIR" INDICATES FEW OR NO CLOUDS BELOW 12,000 FEET WITH NO
SIGNIFICANT WEATHER AND/OR OBSTRUCTIONS TO VISIBILITY.


SDZ001>005-009-010-012>017-301000-
NORTHWEST AND NORTH CENTRAL SOUTH DAKOTA

CITY           SKY/WX    TMP DP  RH WIND       PRES   REMARKS
BUFFALO          N/A     38  34  85 SE7       30.23R
FAITH            N/A     40  32  73 E6        30.30R
MOBRIDGE       CLEAR     42  37  82 E8        30.29R
$$

SDZ012>016-024>037-041>051-057-063-072>074-301000-
SOUTHWEST AND SOUTH CENTRAL SOUTH DAKOTA

CITY           SKY/WX    TMP DP  RH WIND       PRES   REMARKS
RAPID CTY ARPT CLEAR     35  33  92 CALM      30.30S
PIERRE         CLEAR     37  34  89 N7        30.29R
CUSTER         MOCLDY    36  34  92 CALM      30.27F FOG
ELLSWORTH AFB  CLEAR     40  37  87 S5        30.29S
PHILIP         CLEAR     34  33  96 W5        30.30S WCI  30
PINE RIDGE     CLEAR     32  30  92 CALM      30.30R
SPEARFISH        N/A     36  32  87 S8        30.26F
WINNER         FAIR      40  35  83 NW5       30.28S
$$

SDZ004>011-016>023-039-040-301000-
NORTHEAST SOUTH DAKOTA

CITY           SKY/WX    TMP DP  RH WIND       PRES   REMARKS
ABERDEEN       CLEAR     42  34  73 NE12      30.31R
WATERTOWN      PTCLDY    40  33  76 NE16      30.23S
BROOKINGS      MOCLDY    43  36  75 N15G22    30.22R
SISSETON         N/A     39  32  76 N16       30.27S
$$

SDZ017-020-022-023-036>040-048>070-301000-
SOUTHEAST SOUTH DAKOTA

CITY           SKY/WX    TMP DP  RH WIND       PRES   REMARKS
SIOUX FALLS    MOCLDY    46  39  76 N12G21    30.19R
HURON          PTCLDY    40  37  89 N8        30.27R
CHAMBERLAIN    PTCLDY    41  38  90 N3        30.29R
MITCHELL       CLEAR     42  39  89 NW9       30.26R
YANKTON        MOCLDY    48  39  71 N14       30.19S
$$

ABBREVIATIONS USED IN REMARKS
   TC - TEMPERATURE IN CELSIUS
  WCI - WIND CHILL INDEX
   HX - HEAT INDEX
  VSB - VISIBILITY




USA.gov is the U.S. government's official web portal to all federal, state and local government web resources and services.